TimeCST,TemperatureF,Dew PointF,Humidity,Sea Level PressureIn,VisibilityMPH,Wind Direction,Wind SpeedMPH,Gust SpeedMPH,PrecipitationIn,Events,Conditions,WindDirDegrees,DateUTC
12:55 AM,30.0,24.1,79,30.07,10.0,South,8.1,-,N/A,,Clear,180,2012-11-17 06:55:00
1:55 AM,28.6,23.9,83,30.06,10.0,South,6.9,-,N/A,,Clear,180,2012-11-17 07:55:00
2:55 AM,27.7,23.4,84,30.07,10.0,South,6.9,-,N/A,,Clear,180,2012-11-17 08:55:00
3:55 AM,24.8,21.7,88,30.06,10.0,South,3.5,-,N/A,,Clear,180,2012-11-17 09:55:00
4:55 AM,24.8,21.7,88,30.06,10.0,SE,4.6,-,N/A,,Clear,140,2012-11-17 10:55:00
5:55 AM,21.2,18.5,89,30.07,10.0,South,4.6,-,N/A,,Clear,190,2012-11-17 11:55:00
6:55 AM,23.2,20.3,89,30.06,10.0,South,3.5,-,N/A,,Partly Cloudy,170,2012-11-17 12:55:00
7:55 AM,25.9,23.4,90,30.09,10.0,Calm,Calm,-,N/A,,Mostly Cloudy,0,2012-11-17 13:55:00
8:55 AM,28.8,25.7,88,30.09,10.0,Calm,Calm,-,N/A,,Mostly Cloudy,0,2012-11-17 14:55:00
9:55 AM,31.5,27.0,83,30.12,10.0,NW,4.6,-,N/A,,Overcast,310,2012-11-17 15:55:00
10:55 AM,34.7,28.4,78,30.12,10.0,NNW,6.9,-,N/A,,Overcast,340,2012-11-17 16:55:00
11:55 AM,35.8,29.1,77,30.11,10.0,North,8.1,-,N/A,,Mostly Cloudy,350,2012-11-17 17:55:00
12:55 PM,34.7,29.3,81,30.10,10.0,NNW,5.8,-,N/A,,Overcast,330,2012-11-17 18:55:00
1:55 PM,36.5,29.7,76,30.10,10.0,NNE,3.5,-,N/A,,Overcast,20,2012-11-17 19:55:00
2:36 PM,35.6,30.2,81,30.10,10.0,Variable,3.5,-,N/A,,Partly Cloudy,0,2012-11-17 20:36:00
2:45 PM,35.6,30.2,81,30.11,10.0,NE,3.5,-,N/A,,Scattered Clouds,50,2012-11-17 20:45:00
2:55 PM,36.0,29.7,78,30.11,10.0,Calm,Calm,-,0.00,,Scattered Clouds,0,2012-11-17 20:55:00
3:55 PM,35.6,29.5,78,30.11,10.0,Calm,Calm,-,N/A,,Overcast,0,2012-11-17 21:55:00
4:55 PM,34.2,29.3,82,30.11,10.0,Calm,Calm,-,N/A,,Overcast,0,2012-11-17 22:55:00
5:55 PM,29.7,27.5,92,30.10,10.0,NNW,4.6,-,N/A,,Clear,340,2012-11-17 23:55:00
6:50 PM,28.4,26.6,93,30.09,9.0,North,3.5,-,N/A,,Mostly Cloudy,10,2012-11-18 00:50:00
6:55 PM,28.8,27.3,94,30.09,9.0,NNE,4.6,-,N/A,,Mostly Cloudy,30,2012-11-18 00:55:00
7:17 PM,28.4,26.6,93,30.10,9.0,NNW,4.6,-,N/A,,Mostly Cloudy,340,2012-11-18 01:17:00
7:51 PM,28.4,26.6,93,30.09,8.0,NNE,3.5,-,N/A,,Overcast,20,2012-11-18 01:51:00
8:55 PM,28.8,27.0,93,30.08,8.0,North,5.8,-,N/A,,Overcast,350,2012-11-18 02:55:00
9:55 PM,29.5,27.7,93,30.08,7.0,North,8.1,-,N/A,,Overcast,350,2012-11-18 03:55:00
10:55 PM,27.9,26.2,94,30.08,7.0,North,6.9,-,N/A,,Mostly Cloudy,350,2012-11-18 04:55:00
11:17 PM,26.6,24.8,93,30.07,7.0,North,5.8,-,N/A,,Partly Cloudy,350,2012-11-18 05:17:00
11:27 PM,26.6,24.8,93,30.07,6.0,North,5.8,-,N/A,,Mostly Cloudy,360,2012-11-18 05:27:00
11:55 PM,26.1,24.3,93,30.06,7.0,North,5.8,-,N/A,,Clear,360,2012-11-18 05:55:00